Hourly Data Report for September 11, 2017

All times are specified in Local Standard Time (LST). Add 1 hour to adjust for Daylight Saving Time where and when it is observed.

POND INLET A
NUNAVUT

72°41'22.000" N
77°58'08.000" W
61.60 m
2403206
71095
YIO

Download Data

Hourly Data (September 2017)
Hourly Data Report for September 11, 2017
Temp Definition
°C
Dew Point Temp Definition
°C
Rel Hum Definition
%
Wind Dir Definition
10's deg

Wind Spd Definition
km/h
Visibility Definition
km
Stn Press Definition
kPa
Hmdx Definition


Wind Chill Definition


Weather Definition


TIME
00:00 Legend Double Dagger 0.5 -2.6 80 25 50 16.1 99.32     LegendNANA
01:00 Legend Double Dagger 0.4 -2.8 79 24 46 16.1 99.37     LegendNANA
02:00 Legend Double Dagger 0.3 -3.0 78 23 37 16.1 99.40     LegendNANA
03:00 Legend Double Dagger 0.0 -2.9 81 24 30 16.1 99.43   -6 LegendNANA
04:00 Legend Double Dagger -1.0 -3.4 84 23 26 16.1 99.45   -7 LegendNANA
05:00 Legend Double Dagger -3.0 -5.5 83 18 22 16.1 99.45   -9 LegendNANA
06:00 Legend Double Dagger -2.0 -5.2 79 20 15 16.1 99.50   -7 LegendNANA
07:00 Legend Double Dagger -1.9 -4.6 82 18 15 16.1 99.54   -7 LegendNANA
08:00 Legend Double Dagger -1.2 -4.2 80 17 17 16.1 99.61   -6 LegendNANA
09:00 Legend Double Dagger 0.0 -3.4 78 19 17 16.1 99.66   -5 LegendNANA
10:00 Legend Double Dagger 1.0 -1.4 84 24 24 16.1 99.71     LegendNANA
11:00 Legend Double Dagger 0.9 -1.3 85 24 22 16.1 99.73     LegendNANA
12:00 Legend Double Dagger 0.8 -2.4 79 22 18 16.1 99.76     LegendNANA
13:00 Legend Double Dagger 1.0 -1.2 85 22 18 16.1 99.79     LegendNANA
14:00 Legend Double Dagger 1.2 -1.0 85 23 21 16.1 99.83     LegendNANA
15:00 Legend Double Dagger 1.2 -1.5 82 24 26 16.1 99.86     LegendNANA
16:00 Legend Double Dagger 1.9 -2.1 75 23 18 16.1 99.91     LegendNANA
17:00 Legend Double Dagger 1.4 -1.7 80 22 18 16.1 99.96     LegendNANA
18:00 Legend Double Dagger 1.1 -2.1 79 27 11 16.1 100.00     LegendNANA
19:00 Legend Double Dagger -1.0 -4.0 80 19 13 16.1 100.05   -5 LegendNANA
20:00 Legend Double Dagger -3.2 -4.9 88 16 15 16.1 100.08   -8 LegendNANA
21:00 Legend Double Dagger -2.8 -4.4 89 14 17 16.1 100.12   -8 LegendNANA
22:00 Legend Double Dagger -3.2 -4.6 90 13 17 16.1 100.13   -9 LegendNANA
23:00 Legend Double Dagger -3.6 -4.9 91 14 17 16.1 100.15   -9 LegendNANA

Notes on Data Quality.

Legend

  • E = Estimated
  • M = Missing
  • NA = Not Available
  • ‡ = Partner data that is not subject to review by the National Climate Archives
Date modified: